Hourly Weather Roundup
Issued by NWS Central Illinois

Home | Current Version | Previous Version | Text Only | Print | Product List | Glossary On
Versions: 1 2 3 4 5 6 7 8 9 10 11 12 13 14 15 16 17 18 19 20 21 22 23 24 25 26 27 28 29 30 31 32 33 34 35 36 37 38 39 40 41 42 43 44 45 46 47 48 49 50
000
NZUS43 KILX 222210
HWRILX

AREA WEATHER ROUNDUP
NATIONAL WEATHER SERVICE, LINCOLN IL
500 PM CDT MON SEP 22 2014


CITY           SKY/WX    TMP DP  RH WIND       PRES   REMARKS
BLOOMINGTON    SUNNY     71  39  31 N7        30.25F
CHAMPAIGN      SUNNY     69  43  38 CALM      30.24F
DECATUR        SUNNY     71  44  37 NE5       30.24F
FLORA          SUNNY     71  42  35 N8        30.23F
GALESBURG      SUNNY     73  47  39 CALM      30.25S
JACKSONVILLE   SUNNY     73  42  32 NW3       30.25F
LACON          SUNNY     67  42  40 NE3       30.24F
LAWRENCEVILLE  SUNNY     71  45  39 N6        30.22F
LITCHFIELD     SUNNY     71  44  37 CALM      30.23S
$$


CITY           SKY/WX    TMP DP  RH WIND       PRES   REMARKS
LINCOLN        SUNNY     72  39  30 N3        30.21F
MACOMB         SUNNY     71  41  34 NE5       30.26F
MATTOON        SUNNY     70  41  34 N6        30.22F
MT CARMEL AP   SUNNY     72  45  37 N8        30.22S
OLNEY-NOBLE AP SUNNY     70  45  40 N3        30.23F
PARIS          SUNNY     69  45  42 N5        30.24S
PEORIA         SUNNY     72  44  36 N3        30.24F
PONTIAC        SUNNY     70  43  37 NW9       30.24S
RANTOUL        SUNNY     70  39  32 NW3       30.24F
ROBINSON       SUNNY     70  48  45 N6        30.23F
SPRINGFIELD    SUNNY     73  43  33 VRB5      30.24F
TAYLORVILLE    SUNNY     70  39  32 NW5       30.24S
$$

...REGIONAL REPORTS...


CITY           SKY/WX    TMP DP  RH WIND       PRES   REMARKS
CHICAGO O`HARE SUNNY     67  41  38 W5        30.23S
KANKAKEE       SUNNY     66  45  46 CALM      30.24S
MOLINE         SUNNY     69  45  41 S6        30.24F
MOUNT VERNON   SUNNY     70  46  43 N3        30.24S
PITTSFIELD     SUNNY     73  41  32 CALM      30.25F
QUINCY         SUNNY     72  41  32 CALM      30.23F
ROCKFORD       SUNNY     69  44  40 VRB6      30.24F
$$


CITY           SKY/WX    TMP DP  RH WIND       PRES   REMARKS
BURLINGTON     SUNNY     70  45  40 VRB5      30.24F
CEDAR RAPIDS   SUNNY     69  47  45 S3        30.23F
DES MOINES     MOSUNNY   73  49  42 W7        30.22F
KIRKSVILLE     SUNNY     71  49  45 W3        30.25F
OTTUMWA        SUNNY     70  48  45 VRB5      30.23F
ST LOUIS       MOSUNNY   75  47  36 CALM      30.23F
$$


CITY           SKY/WX    TMP DP  RH WIND       PRES   REMARKS
TERRE HAUTE    SUNNY     68  43  40 N6        30.23S
EVANSVILLE     SUNNY     71  42  35 N10       30.22S
INDIANAPOLIS   SUNNY     66  41  40 NW5       30.22F
LAFAYETTE      SUNNY     65  43  44 N6        30.23S
MADISON        MOSUNNY   69  47  45 W7        30.21F
MILWAUKEE      MOSUNNY   68  43  40 W8        30.20F
$$





USA.gov is the U.S. government's official web portal to all federal, state and local government web resources and services.